Date,TemperatureHighF,TemperatureAvgF,TemperatureLowF,DewpointHighF,DewpointAvgF,DewpointLowF,HumidityHigh,HumidityAvg,HumidityLow,PressureMaxIn,PressureMinIn,WindSpeedMaxMPH,WindSpeedAvgMPH,GustSpeedMaxMPH,PrecipitationSumIn
2013-2-1,31.0,25.2,20.0,24.0,21.2,17.0,92,85,72,0.00,40.00,9,6,22,0.05
2013-2-2,29.0,24.0,19.0,22.0,17.0,15.0,90,75,56,0.00,40.00,14,8,39,0.04
2013-2-3,42.0,26.8,13.0,17.0,11.6,4.0,87,57,23,0.00,40.00,10,4,28,0.08
2013-2-4,36.0,23.4,11.0,16.0,12.8,7.0,86,66,42,0.00,40.00,11,4,26,0.02
2013-2-5,36.0,28.4,20.0,22.0,18.8,13.0,78,67,51,0.00,40.00,6,4,18,0.01
2013-2-6,40.0,24.7,11.0,20.0,14.2,7.0,87,67,41,0.00,40.00,7,3,14,0.01
2013-2-7,35.0,21.6,8.0,14.0,9.7,4.0,85,62,38,0.00,40.00,8,4,17,0.00
2013-2-8,43.0,26.8,13.0,17.0,8.2,-5.0,79,49,14,0.00,40.00,7,4,14,0.00
2013-2-9,34.0,21.6,12.0,13.0,8.6,3.0,81,58,33,0.00,40.00,7,4,18,0.00
2013-2-10,19.0,13.7,6.0,12.0,7.1,0.0,83,75,63,0.00,40.00,11,8,35,0.00
2013-2-11,23.0,9.3,2.0,7.0,-0.1,-7.0,78,66,34,0.00,40.00,7,4,20,0.00
2013-2-12,32.0,18.9,4.0,14.0,6.7,-4.0,80,60,36,0.00,40.00,9,3,18,0.00
2013-2-13,32.0,23.7,18.0,24.0,16.5,11.0,89,74,52,0.00,40.00,13,6,32,0.01
2013-2-14,18.0,12.6,3.0,11.0,5.7,-5.0,83,73,53,0.00,40.00,9,6,26,0.03
2013-2-15,21.0,11.8,-3.0,11.0,3.0,-9.0,85,69,39,0.00,40.00,7,3,18,0.04
2013-2-16,38.0,29.1,18.0,21.0,18.2,13.0,82,64,47,0.00,40.00,10,5,22,0.04
2013-2-17,42.0,24.8,13.0,21.0,14.8,9.0,87,69,33,0.00,40.00,10,6,23,0.02
2013-2-18,21.0,14.5,4.0,14.0,5.8,-3.0,80,69,50,0.00,40.00,10,7,25,0.00
2013-2-19,28.0,11.5,-8.0,13.0,2.5,-15.0,84,68,40,0.00,40.00,11,6,26,0.00
2013-2-20,30.0,18.8,10.0,17.0,11.7,6.0,90,75,52,0.00,40.00,9,5,18,0.00
2013-2-21,26.0,18.6,15.0,16.0,13.7,11.0,89,81,61,0.00,40.00,4,2,10,0.03
2013-2-22,27.0,18.1,8.0,14.0,8.7,3.0,86,69,41,0.00,40.00,8,4,25,0.01
2013-2-23,37.0,20.6,-2.0,20.0,9.3,-8.0,85,64,33,0.00,40.00,5,2,10,0.01
2013-2-24,25.0,18.5,4.0,20.0,13.6,-1.0,88,81,66,0.00,40.00,5,3,14,0.01
2013-2-25,35.0,16.2,-6.0,13.0,0.3,-12.0,83,54,25,0.00,40.00,5,3,9,0.01
2013-2-26,29.0,17.7,4.0,18.0,11.0,-1.0,85,75,64,0.00,40.00,7,5,20,0.01
2013-2-27,30.0,18.6,6.0,9.0,6.1,1.0,81,59,39,0.00,40.00,10,6,24,0.00
2013-2-28,32.0,18.7,4.0,17.0,10.2,-1.0,88,72,43,0.00,40.00,8,3,18,0.00